Galesburg, IL

12:21 AM CDT on March 24, 2017 (GMT -0500)
Galesburg Municipal

Weather History for KGBG - January, 2013

Change the Weather History Date:

Saturday, January 19, 2013

  Actual Average Record
Temperature  
Mean Temperature 39 °F -  
Max Temperature 51 °F 29 °F 61 °F (1952)
Min Temperature 25 °F 13 °F -21 °F (1985)
Degree Days  
Heating Degree Days 26    
Moisture  
Dew Point 31 °F    
Average Humidity 69    
Maximum Humidity 80    
Minimum Humidity 50    
Precipitation  
Precipitation 0.00 in - - ()
Sea Level Pressure  
Sea Level Pressure 29.92 in    
Wind  
Wind Speed 15 mph (SW)    
Max Wind Speed 29 mph    
Max Gust Speed 40 mph    
Visibility 10 miles    
Events      
Averages and records for this station are not official NWS values.
T = Trace of Precipitation, MM = Missing Value Source: NWS Daily Summary

Daily Weather History Graph

Daily Weather History Graph

Search for Another Location

Airport or City:

Trip Planner

Search our weather history database for the weather conditions in past years. The results will help you decide how hot, cold, wet, or windy it might be!

Date:

Astronomy

Jan. 19, 2013 Rise Set
Actual Time 7:22 AM CST 5:03 PM CST
Civil Twilight 6:52 AM CST 5:33 PM CST
Nautical Twilight 6:18 AM CST 6:06 PM CST
Astronomical Twilight 5:45 AM CST 6:39 PM CST
Moon 11:30 AM CST (1/19) 12:55 AM CST (1/19)
Length of Visible Light 10h 41m
Length of Day
9h 41m
First Quarter, 57% of the Moon is Illuminated
Jan 19
First Quarter
Jan 26
Full
Feb 3
Last Quarter
Feb 10
New
Feb 17
First Quarter

Hourly Weather History & Observations

Time (CST) Temp. Windchill Dew Point Humidity Pressure Visibility Wind Dir Wind Speed Gust Speed Precip Events Conditions
12:15 AM 39.2 °F 29.8 °F 29.8 °F 69% 29.96 in 10.0 mi SSW 18.4 mph - N/A   Clear
12:35 AM 39.0 °F 30.3 °F 29.8 °F 70% 29.96 in 10.0 mi SSW 16.1 mph - N/A   Clear
12:55 AM 38.5 °F 29.9 °F 29.8 °F 71% 29.96 in 10.0 mi SSW 15.0 mph 20.7 mph N/A   Clear
1:15 AM 37.6 °F 29.1 °F 29.7 °F 73% 29.96 in 10.0 mi SSW 13.8 mph - N/A   Clear
1:35 AM 37.2 °F 28.7 °F 29.7 °F 74% 29.96 in 10.0 mi SSW 13.8 mph - N/A   Clear
1:55 AM 37.0 °F 28.5 °F 29.7 °F 75% 29.96 in 10.0 mi SSW 13.8 mph - N/A   Clear
2:15 AM 37.2 °F 28.7 °F 29.8 °F 75% 29.96 in 10.0 mi SSW 13.8 mph - N/A   Clear
2:35 AM 36.5 °F 27.8 °F 29.8 °F 77% 29.96 in 10.0 mi SSW 13.8 mph - N/A   Clear
2:55 AM 36.1 °F 27.3 °F 29.8 °F 78% 29.96 in 10.0 mi SSW 13.8 mph - N/A   Clear
3:15 AM 35.8 °F 27.3 °F 29.7 °F 78% 29.95 in 10.0 mi SSW 12.7 mph - N/A   Clear
3:35 AM 35.6 °F 27.1 °F 29.7 °F 79% 29.94 in 10.0 mi SSW 12.7 mph - N/A   Clear
3:55 AM 35.8 °F 27.3 °F 30.0 °F 80% 29.94 in 10.0 mi SSW 12.7 mph - N/A   Clear
4:15 AM 35.8 °F 26.9 °F 30.0 °F 80% 29.93 in 10.0 mi SSW 13.8 mph - N/A   Clear
4:35 AM 36.5 °F 27.8 °F 30.2 °F 78% 29.93 in 10.0 mi SSW 13.8 mph - N/A   Clear
4:55 AM 36.5 °F 27.8 °F 30.2 °F 78% 29.92 in 10.0 mi SSW 13.8 mph - N/A   Clear
5:15 AM 36.7 °F 27.2 °F 30.2 °F 77% 29.91 in 10.0 mi SSW 16.1 mph - N/A   Clear
5:35 AM 36.9 °F 27.5 °F 30.6 °F 78% 29.91 in 10.0 mi SSW 16.1 mph - N/A   Clear
5:55 AM 36.9 °F 27.8 °F 30.6 °F 78% 29.91 in 10.0 mi South 15.0 mph - N/A   Clear
7:15 AM 36.7 °F 27.6 °F 30.7 °F 79% 29.89 in 10.0 mi South 15.0 mph - N/A   Clear
7:55 AM 37.0 °F 29.3 °F 31.1 °F 79% 29.90 in 10.0 mi SSW 11.5 mph - N/A   Clear
8:15 AM 37.2 °F 29.6 °F 31.3 °F 79% 29.90 in 10.0 mi SSW 11.5 mph - N/A   Clear
8:35 AM 38.1 °F 30.2 °F 32.0 °F 79% 29.89 in 10.0 mi South 12.7 mph - N/A   Clear
9:35 AM 40.8 °F 33.7 °F 32.9 °F 73% 29.90 in 10.0 mi SSW 12.7 mph 17.3 mph N/A   Clear
9:55 AM 43.2 °F 35.3 °F 34.0 °F 70% 29.89 in 10.0 mi SSW 17.3 mph - N/A   Clear
10:15 AM 42.6 °F 34.9 °F 33.8 °F 71% 29.89 in 10.0 mi SW 16.1 mph 21.9 mph N/A   Clear
10:35 AM 42.8 °F 36.2 °F 34.0 °F 71% 29.89 in 10.0 mi SW 12.7 mph 18.4 mph N/A   Clear
11:15 AM 44.6 °F 38.4 °F 35.1 °F 69% 29.86 in 10.0 mi SW 12.7 mph 17.3 mph N/A   Clear
11:35 AM 45.1 °F 38.8 °F 35.4 °F 69% 29.86 in 10.0 mi SW 13.8 mph 20.7 mph N/A   Clear
11:55 AM 45.0 °F 38.9 °F 35.8 °F 70% 29.85 in 10.0 mi SW 12.7 mph - N/A   Clear
12:15 PM 45.7 °F 40.2 °F 36.3 °F 70% 29.83 in 10.0 mi SW 11.5 mph - N/A   Clear
12:35 PM 46.9 °F - 36.7 °F 68% 29.82 in 10.0 mi SSW 15.0 mph 18.4 mph N/A   Clear
12:55 PM 46.4 °F 40.1 °F 35.6 °F 66% 29.82 in 10.0 mi SW 15.0 mph 20.7 mph N/A   Clear
1:15 PM 49.5 °F - 36.1 °F 60% 29.82 in 10.0 mi SW 13.8 mph 20.7 mph N/A   Clear
1:35 PM 50.0 °F - 36.0 °F 59% 29.82 in 10.0 mi WSW 16.1 mph 24.2 mph N/A   Clear
1:55 PM 50.4 °F - 35.2 °F 56% 29.81 in 10.0 mi SW 18.4 mph 24.2 mph N/A   Clear
2:15 PM 50.9 °F - 33.3 °F 51% 29.81 in 10.0 mi WSW 16.1 mph 21.9 mph N/A   Clear
2:35 PM 51.1 °F - 33.4 °F 51% 29.81 in 10.0 mi WSW 13.8 mph 23.0 mph N/A   Clear
2:55 PM 51.6 °F - 33.6 °F 50% 29.81 in 10.0 mi WSW 13.8 mph 23.0 mph N/A   Clear
3:15 PM 51.8 °F - 34.2 °F 51% 29.82 in 10.0 mi WSW 16.1 mph 21.9 mph N/A   Clear
3:35 PM 51.1 °F - 33.8 °F 52% 29.83 in 10.0 mi WSW 11.5 mph 18.4 mph N/A   Clear
3:55 PM 50.2 °F - 33.4 °F 53% 29.84 in 10.0 mi West 12.7 mph 19.6 mph N/A   Clear
4:15 PM 49.3 °F - 33.1 °F 54% 29.85 in 10.0 mi West 12.7 mph - N/A   Clear
4:35 PM 47.8 °F - 33.3 °F 57% 29.86 in 10.0 mi West 10.4 mph - N/A   Clear
4:55 PM 46.2 °F 41.7 °F 33.1 °F 60% 29.87 in 10.0 mi West 9.2 mph - N/A   Clear
5:15 PM 44.4 °F 39.5 °F 32.9 °F 64% 29.88 in 10.0 mi West 9.2 mph - N/A   Clear
5:35 PM 43.0 °F 37.7 °F 32.2 °F 66% 29.89 in 10.0 mi West 9.2 mph - N/A   Clear
5:55 PM 42.3 °F 35.9 °F 32.0 °F 67% 29.91 in 10.0 mi West 11.5 mph - N/A   Clear
6:15 PM 41.7 °F 34.8 °F 32.0 °F 68% 29.92 in 10.0 mi West 12.7 mph - N/A   Clear
6:35 PM 42.3 °F 35.1 °F 32.0 °F 67% 29.93 in 10.0 mi West 13.8 mph - N/A   Clear
6:55 PM 41.2 °F 33.7 °F 32.0 °F 70% 29.94 in 10.0 mi West 13.8 mph - N/A   Clear
7:15 PM 43.0 °F 35.4 °F 32.0 °F 65% 29.94 in 10.0 mi West 16.1 mph 20.7 mph N/A   Clear
7:35 PM 42.6 °F 34.9 °F 32.2 °F 67% 29.94 in 10.0 mi West 16.1 mph 21.9 mph N/A   Clear
7:55 PM 41.7 °F 33.4 °F 32.4 °F 69% 29.95 in 10.0 mi West 17.3 mph 21.9 mph N/A   Clear
8:15 PM 41.0 °F 31.9 °F 32.4 °F 71% 29.96 in 10.0 mi West 19.6 mph 25.3 mph N/A   Clear
8:35 PM 41.0 °F 30.9 °F 31.8 °F 70% 29.98 in 10.0 mi West 24.2 mph 31.1 mph N/A   Clear
8:55 PM 40.1 °F 30.5 °F 31.3 °F 71% 29.99 in 10.0 mi West 20.7 mph 27.6 mph N/A   Mostly Cloudy
9:15 PM 38.5 °F 28.6 °F 30.9 °F 74% 29.99 in 10.0 mi West 19.6 mph 25.3 mph N/A   Scattered Clouds
9:35 PM 37.8 °F 27.4 °F 30.2 °F 74% 30.00 in 10.0 mi West 20.7 mph 25.3 mph N/A   Clear
9:55 PM 36.5 °F 27.4 °F 30.2 °F 78% 30.02 in 10.0 mi WNW 15.0 mph 23.0 mph N/A   Scattered Clouds
10:15 PM 34.7 °F 22.5 °F 26.4 °F 72% 30.04 in 10.0 mi NW 24.2 mph 28.8 mph N/A   Scattered Clouds
10:35 PM 32.2 °F 18.1 °F 24.8 °F 74% 30.06 in 10.0 mi WNW 28.8 mph 39.1 mph N/A   Clear
10:55 PM 30.7 °F 17.5 °F 23.2 °F 74% 30.08 in 10.0 mi NW 23.0 mph 40.3 mph N/A   Clear
11:15 PM 28.8 °F 14.0 °F 17.8 °F 64% 30.10 in 10.0 mi WNW 26.5 mph 38.0 mph N/A   Mostly Cloudy
11:35 PM 27.1 °F 12.1 °F 13.5 °F 56% 30.11 in 10.0 mi WNW 25.3 mph 35.7 mph N/A   Scattered Clouds
11:55 PM 25.7 °F 11.2 °F 12.9 °F 58% 30.12 in 10.0 mi WNW 21.9 mph 28.8 mph N/A   Clear